Temp
13 13 13 12 12 12 11 11 10 10 9 9 8 8 7 7 6 6 5 4 4 4 3 3 3 3 3 2 2 2 2 1 1 0 0 -0 -0 -1 -1 -1 -1 -2 -2 -2 -2 -3 -3 -3 -4 -4 -4 -4 -4 -5 -5 -5 -5 -6 -6 -6 -6 -6 -6 -6 -6 -6 -7 -7 -7
13 13 13 12 12 11 11 10 10 10 9 9 8 8 7 7 6 5 5 4 4 3 3 3 3 3 3 2 2 2 2 1 1 0 -0 -0 -0 -1 -1 -1 -1 -1 -2 -2 -2 -3 -3 -3 -4 -4 -4 -4 -4 -5 -5 -5 -5 -6 -6 -6 -6 -6 -6 -6 -6 -6 -7 -7 -7
13 13 12 12 11 11 11 11 10 10 10 9 9 8 7 7 6 5 5 4 4 3 3 3 3 2 2 2 2 2 1 1 0 0 -0 -0 -0 -0 -1 -1 -1 -1 -2 -2 -2 -3 -3 -3 -4 -4 -4 -4 -4 -4 -5 -5 -5 -6 -6 -6 -6 -6 -6 -6 -6 -6 -7 -7 -7
13 12 12 12 12 12 11 11 10 10 9 9 8 7 7 6 6 5 4 4 3 3 3 2 2 2 2 2 2 2 1 1 0 -0 -0 -0 -0 -0 -1 -1 -1 -1 -2 -2 -2 -3 -3 -4 -4 -4 -4 -4 -4 -4 -5 -5 -5 -6 -6 -6 -6 -6 -6 -6 -6 -6 -7 -7 -7
13 13 12 12 12 11 11 10 9 9 9 8 7 7 6 6 5 5 4 4 3 3 2 2 2 2 2 2 2 1 1 1 0 -0 -0 -0 -0 -0 -1 -1 -1 -1 -2 -2 -2 -3 -3 -4 -4 -4 -4 -4 -4 -4 -5 -5 -5 -6 -6 -6 -6 -6 -6 -6 -6 -6 -7 -7 -7
12 12 12 11 11 10 10 9 9 8 8 8 7 7 6 6 5 5 4 4 3 3 2 2 2 2 2 2 1 1 1 0 0 -0 -0 -0 -0 -1 -1 -1 -1 -1 -2 -2 -2 -3 -3 -4 -4 -4 -4 -4 -4 -4 -5 -5 -5 -6 -6 -6 -6 -6 -6 -6 -6 -6 -7 -7 -7
11 11 11 10 10 10 9 9 8 8 8 7 7 7 6 6 5 5 4 4 3 3 2 2 2 2 2 2 1 1 1 0 0 -0 -0 -0 -0 -1 -1 -1 -1 -1 -1 -2 -2 -3 -3 -3 -4 -4 -4 -4 -4 -4 -5 -5 -5 -6 -6 -6 -6 -6 -6 -6 -6 -6 -6 -7 -7
10 10 10 10 9 9 9 8 8 7 7 7 7 7 6 6 5 5 4 3 3 2 2 2 2 2 2 1 1 1 1 0 0 0 -0 -0 -1 -1 -1 -1 -1 -1 -2 -2 -2 -3 -3 -3 -4 -4 -4 -4 -4 -4 -5 -5 -5 -6 -6 -6 -6 -6 -6 -6 -6 -6 -6 -7 -7
9 9 9 9 9 8 8 8 7 7 7 7 7 6 6 5 5 4 4 3 3 2 2 2 2 1 1 1 1 1 1 0 0 0 -0 -0 -1 -1 -1 -1 -1 -1 -2 -2 -2 -3 -3 -3 -4 -4 -4 -4 -4 -4 -5 -5 -5 -6 -6 -6 -6 -6 -6 -6 -6 -6 -6 -6 -7
9 9 9 8 8 8 7 7 7 6 6 6 6 6 5 5 4 4 3 3 3 2 2 1 1 1 1 1 1 1 1 0 0 -0 -0 -1 -1 -1 -1 -1 -1 -2 -2 -2 -2 -3 -3 -3 -4 -4 -4 -4 -4 -5 -5 -5 -5 -5 -5 -6 -6 -6 -6 -6 -6 -6 -6 -6 -7
8 8 8 8 7 7 7 6 6 6 6 5 5 5 5 5 4 4 3 3 2 2 2 1 1 1 1 1 1 1 0 0 -0 -0 -1 -1 -1 -1 -2 -2 -2 -2 -2 -2 -3 -3 -3 -3 -4 -4 -4 -4 -4 -5 -5 -5 -5 -5 -5 -5 -6 -6 -6 -6 -6 -6 -6 -6 -7
7 7 7 7 6 6 6 6 5 5 5 5 5 5 5 4 4 4 3 3 2 2 1 1 1 1 1 1 1 0 0 0 -0 -0 -1 -1 -1 -2 -2 -2 -2 -2 -2 -3 -3 -3 -3 -4 -4 -4 -4 -4 -4 -5 -5 -5 -5 -5 -5 -5 -6 -6 -6 -6 -6 -6 -6 -6 -7
7 6 6 6 6 6 5 5 5 5 5 5 5 5 5 4 4 4 3 3 2 2 1 1 1 1 1 0 0 0 -0 -0 -0 -1 -1 -1 -2 -2 -2 -2 -2 -2 -3 -3 -3 -3 -3 -4 -4 -4 -4 -4 -4 -5 -5 -5 -5 -5 -5 -5 -6 -6 -6 -6 -6 -6 -6 -7 -7
6 6 6 6 6 5 5 5 5 5 5 5 5 5 4 4 4 3 3 3 2 2 2 1 1 0 0 0 0 -0 -0 -1 -1 -1 -1 -2 -2 -2 -2 -2 -2 -3 -3 -3 -3 -4 -4 -4 -4 -4 -4 -4 -4 -5 -5 -5 -5 -5 -5 -5 -5 -6 -6 -6 -6 -6 -6 -7 -7
7 6 6 6 6 6 6 6 6 5 5 5 5 4 4 4 4 3 3 3 2 2 2 1 1 0 0 0 -0 -0 -1 -1 -1 -1 -2 -2 -2 -3 -3 -3 -3 -3 -3 -3 -4 -4 -4 -4 -4 -4 -4 -4 -4 -5 -5 -5 -5 -5 -5 -5 -5 -6 -6 -6 -6 -6 -6 -7 -7
8 8 7 7 7 7 7 6 6 6 5 5 5 4 4 4 4 3 3 3 2 2 2 1 1 0 -0 -0 -0 -1 -1 -1 -2 -2 -2 -2 -3 -3 -3 -3 -3 -3 -3 -4 -4 -4 -4 -4 -4 -4 -4 -4 -4 -5 -5 -5 -5 -5 -5 -5 -5 -6 -6 -6 -6 -6 -6 -7 -7
9 9 8 8 8 8 7 7 6 6 5 5 5 4 4 4 4 3 3 3 2 2 2 1 1 0 -0 -1 -1 -1 -1 -2 -2 -2 -2 -3 -3 -3 -3 -3 -3 -3 -3 -4 -4 -4 -4 -4 -4 -4 -4 -4 -4 -5 -5 -5 -5 -5 -5 -5 -5 -6 -6 -6 -6 -6 -6 -7 -7
9 9 9 8 8 8 8 7 6 6 6 5 5 4 4 4 3 3 3 3 2 2 2 1 1 0 -0 -1 -1 -1 -2 -2 -2 -2 -3 -3 -3 -3 -3 -3 -3 -3 -3 -4 -4 -4 -4 -4 -4 -4 -4 -4 -4 -5 -5 -5 -5 -5 -5 -5 -5 -6 -6 -6 -6 -6 -6 -7 -7
10 9 9 9 8 8 8 7 7 6 6 5 5 4 4 4 3 3 3 2 2 2 1 1 1 0 -1 -1 -1 -2 -2 -2 -2 -3 -3 -3 -3 -3 -3 -3 -3 -3 -3 -4 -4 -4 -4 -4 -4 -4 -4 -4 -4 -5 -5 -5 -5 -5 -5 -5 -5 -6 -6 -6 -6 -6 -6 -7 -7
10 10 10 9 9 8 8 7 7 6 6 5 5 4 4 4 3 3 2 2 2 1 1 1 0 -0 -1 -1 -1 -2 -2 -2 -3 -3 -3 -3 -3 -3 -3 -3 -3 -3 -3 -4 -4 -4 -4 -4 -4 -4 -4 -4 -4 -5 -5 -5 -5 -5 -5 -5 -5 -6 -6 -6 -6 -6 -6 -6 -7
10 10 10 10 9 9 8 7 7 6 5 5 5 4 4 3 3 2 2 2 1 1 0 0 -0 -1 -1 -1 -2 -2 -2 -3 -3 -3 -4 -4 -4 -3 -3 -3 -3 -3 -3 -4 -4 -4 -4 -4 -4 -4 -4 -4 -5 -5 -5 -5 -5 -5 -5 -5 -5 -5 -6 -6 -6 -6 -6 -7 -7
10 10 10 9 9 9 8 8 7 6 6 5 5 4 4 3 3 2 2 1 0 -0 -0 -1 -1 -1 -1 -2 -2 -2 -2 -3 -3 -4 -4 -4 -4 -4 -3 -3 -3 -3 -3 -3 -4 -4 -4 -4 -4 -4 -4 -4 -5 -5 -5 -5 -5 -5 -5 -5 -5 -5 -6 -6 -6 -6 -6 -7 -7
9 9 10 9 9 9 9 8 8 8 7 6 6 5 4 3 3 2 1 0 -0 -1 -1 -1 -1 -2 -2 -2 -2 -3 -3 -3 -4 -4 -4 -4 -4 -4 -4 -3 -3 -3 -3 -3 -4 -4 -4 -4 -4 -4 -4 -5 -5 -5 -5 -5 -5 -5 -5 -5 -5 -5 -6 -6 -6 -6 -6 -7 -7
9 9 10 10 10 10 10 10 9 9 8 8 6 5 4 3 2 1 0 -0 -1 -1 -1 -2 -2 -2 -2 -3 -3 -3 -3 -4 -4 -4 -4 -4 -4 -4 -4 -3 -3 -3 -3 -3 -3 -4 -4 -4 -4 -4 -4 -5 -5 -5 -5 -5 -5 -5 -5 -5 -5 -5 -5 -6 -6 -6 -6 -7 -7
9 10 10 11 11 11 11 11 10 10 9 8 6 5 4 3 2 1 0 -0 -1 -1 -2 -2 -2 -3 -3 -3 -3 -4 -4 -4 -4 -4 -4 -4 -4 -4 -4 -3 -3 -3 -3 -3 -3 -4 -4 -4 -4 -4 -5 -5 -5 -5 -5 -5 -5 -5 -5 -5 -5 -5 -5 -6 -6 -6 -6 -6 -7
10 11 11 11 11 11 11 10 10 9 8 7 5 4 3 2 1 1 0 -0 -1 -2 -2 -2 -3 -3 -3 -3 -4 -4 -4 -4 -5 -5 -4 -4 -4 -4 -4 -3 -3 -3 -3 -3 -3 -4 -4 -4 -4 -4 -5 -5 -5 -5 -5 -5 -5 -5 -5 -5 -5 -5 -5 -5 -5 -5 -6 -6 -6
10 10 10 11 10 10 10 9 9 8 6 5 4 3 3 2 1 0 -0 -1 -1 -2 -2 -2 -3 -3 -3 -4 -4 -4 -4 -5 -5 -5 -4 -4 -4 -4 -4 -3 -3 -3 -3 -3 -4 -4 -4 -4 -4 -5 -5 -5 -5 -5 -5 -5 -5 -5 -5 -5 -5 -5 -5 -5 -5 -5 -5 -5 -6
10 10 10 10 10 9 8 8 7 6 5 4 4 3 2 1 1 0 -0 -1 -1 -2 -2 -2 -3 -3 -4 -4 -4 -5 -5 -5 -5 -5 -4 -4 -4 -4 -4 -3 -3 -3 -3 -3 -4 -4 -4 -4 -5 -5 -5 -5 -5 -5 -5 -5 -5 -5 -5 -5 -5 -5 -5 -5 -5 -5 -6 -6 -6
10 10 10 9 9 8 8 7 6 5 5 4 3 2 1 1 1 0 -0 -1 -1 -1 -2 -2 -3 -3 -4 -4 -5 -5 -5 -5 -5 -5 -4 -4 -4 -4 -4 -4 -3 -3 -3 -4 -4 -4 -4 -5 -5 -5 -5 -5 -5 -5 -5 -5 -5 -5 -5 -5 -5 -5 -5 -5 -6 -6 -7 -7 -7
10 9 9 9 8 8 7 6 6 5 4 3 2 2 1 1 1 0 -0 -0 -1 -1 -2 -3 -3 -4 -4 -4 -5 -5 -5 -5 -5 -5 -4 -4 -4 -4 -4 -4 -4 -3 -4 -4 -4 -4 -4 -5 -5 -5 -5 -5 -5 -5 -5 -5 -5 -5 -5 -5 -5 -5 -6 -6 -7 -7 -7 -8 -8
9 9 8 8 7 7 7 6 5 4 4 3 2 2 1 1 1 1 0 -0 -1 -2 -2 -3 -3 -4 -4 -4 -5 -5 -5 -5 -5 -5 -4 -4 -4 -4 -4 -4 -4 -4 -4 -4 -4 -4 -4 -5 -5 -5 -5 -5 -6 -6 -5 -5 -5 -5 -5 -5 -5 -6 -6 -6 -7 -7 -7 -8 -8
8 8 8 7 7 6 6 5 5 4 4 3 2 2 1 1 1 0 -0 -1 -2 -2 -3 -3 -3 -4 -4 -5 -5 -5 -5 -5 -5 -4 -4 -4 -4 -4 -4 -4 -4 -4 -4 -4 -4 -4 -4 -5 -5 -5 -5 -5 -6 -6 -6 -6 -6 -5 -5 -5 -5 -6 -6 -6 -7 -7 -7 -7 -7
7 7 7 6 6 6 5 5 5 4 3 3 2 2 1 1 -0 -1 -1 -2 -2 -3 -3 -3 -4 -4 -4 -5 -5 -5 -5 -5 -5 -4 -4 -4 -4 -4 -4 -4 -4 -4 -4 -4 -4 -4 -4 -5 -5 -5 -5 -5 -6 -6 -6 -6 -6 -6 -6 -5 -5 -6 -6 -6 -7 -7 -7 -7 -7
7 6 6 6 6 5 5 4 4 3 3 2 2 1 1 -0 -1 -1 -2 -2 -3 -3 -3 -3 -3 -4 -4 -5 -5 -5 -5 -5 -5 -4 -4 -4 -4 -4 -4 -4 -4 -4 -4 -4 -4 -4 -4 -5 -5 -5 -5 -5 -6 -6 -6 -6 -6 -6 -5 -5 -5 -5 -6 -6 -6 -6 -6 -6 -7
6 6 5 5 5 5 4 4 3 3 2 1 1 1 0 -1 -1 -1 -2 -2 -2 -3 -3 -3 -3 -4 -4 -5 -5 -5 -5 -5 -4 -4 -4 -4 -4 -4 -4 -4 -4 -4 -4 -4 -4 -4 -4 -5 -5 -5 -5 -5 -6 -6 -6 -6 -6 -5 -5 -5 -5 -5 -6 -6 -6 -6 -6 -6 -7
6 6 5 5 5 4 4 3 3 2 2 1 1 0 0 -0 -1 -1 -1 -2 -2 -3 -3 -3 -4 -4 -4 -5 -5 -5 -5 -5 -4 -4 -4 -4 -4 -4 -4 -4 -4 -4 -4 -4 -4 -4 -4 -5 -5 -5 -5 -6 -6 -6 -6 -6 -5 -5 -5 -5 -5 -5 -5 -6 -6 -6 -6 -6 -7
6 6 5 5 5 4 4 3 3 2 2 2 1 1 1 0 -0 -1 -1 -2 -2 -3 -3 -3 -3 -4 -4 -5 -5 -5 -5 -5 -4 -4 -4 -4 -4 -4 -4 -4 -4 -4 -4 -4 -4 -4 -4 -5 -5 -5 -5 -6 -6 -6 -5 -5 -5 -5 -5 -5 -5 -5 -5 -5 -6 -6 -6 -6 -7
6 5 5 5 4 4 3 3 3 2 2 2 2 1 1 0 0 -0 -1 -2 -2 -2 -3 -3 -3 -4 -4 -4 -5 -5 -5 -5 -4 -4 -4 -4 -4 -4 -4 -4 -4 -4 -4 -4 -4 -4 -4 -5 -5 -5 -5 -5 -5 -5 -5 -5 -5 -5 -5 -5 -5 -5 -5 -5 -5 -6 -6 -6 -7
5 5 4 4 4 4 3 3 3 3 3 2 2 1 1 0 0 -0 -1 -1 -2 -2 -3 -3 -3 -4 -4 -4 -5 -5 -5 -5 -4 -4 -4 -4 -4 -4 -4 -4 -4 -4 -4 -4 -4 -4 -4 -5 -5 -5 -5 -5 -5 -5 -5 -5 -5 -5 -5 -5 -5 -5 -5 -5 -5 -6 -6 -6 -7
5 4 4 4 4 4 3 3 3 3 2 2 1 1 1 0 -0 -1 -1 -2 -2 -3 -3 -3 -3 -4 -4 -4 -5 -5 -5 -5 -4 -4 -4 -4 -4 -4 -4 -4 -4 -4 -4 -4 -4 -4 -4 -4 -5 -5 -5 -5 -5 -5 -5 -5 -5 -5 -5 -5 -5 -5 -5 -5 -5 -6 -6 -6 -7
5 5 4 4 4 3 3 3 2 2 2 1 1 0 0 -1 -1 -2 -2 -2 -3 -3 -3 -3 -4 -4 -4 -5 -5 -5 -5 -5 -4 -4 -4 -4 -4 -4 -4 -4 -4 -4 -4 -4 -4 -4 -4 -4 -5 -5 -5 -5 -5 -5 -5 -5 -5 -5 -5 -5 -5 -5 -5 -5 -5 -6 -6 -7 -7
Height
1460 1460 1460 1460 1460 1460 1461 1461 1461 1462 1462 1462 1463 1463 1464 1466 1466 1468 1469 1470 1472 1473 1475 1477 1478 1480 1481 1482 1483 1483 1484 1484 1485 1485 1486 1487 1487 1488 1488 1488 1489 1489 1490 1490 1490 1490 1490 1490 1490 1489 1489 1489 1489 1489 1489 1489 1489 1489 1489 1489 1488 1488 1488 1488 1487 1487 1487 1486 1485
1457 1457 1457 1457 1458 1458 1458 1458 1458 1458 1458 1459 1460 1461 1462 1463 1463 1464 1466 1467 1469 1471 1473 1474 1476 1477 1478 1479 1480 1481 1481 1482 1482 1483 1483 1484 1484 1485 1486 1486 1487 1487 1488 1488 1488 1488 1488 1488 1488 1487 1487 1487 1487 1487 1487 1487 1487 1487 1487 1487 1487 1486 1486 1486 1485 1485 1485 1484 1483
1453 1454 1454 1454 1454 1454 1454 1454 1455 1455 1456 1456 1457 1458 1459 1460 1461 1462 1463 1465 1467 1469 1470 1472 1473 1474 1476 1477 1478 1478 1478 1479 1479 1480 1481 1481 1482 1483 1483 1484 1484 1485 1485 1485 1485 1485 1485 1485 1485 1485 1485 1485 1485 1485 1485 1485 1485 1485 1485 1484 1484 1484 1484 1483 1483 1483 1483 1482 1481
1451 1451 1451 1451 1451 1451 1451 1452 1452 1453 1453 1454 1455 1456 1456 1457 1458 1459 1461 1463 1464 1466 1468 1469 1470 1472 1473 1474 1475 1475 1476 1476 1477 1477 1478 1478 1479 1480 1481 1482 1482 1483 1483 1483 1483 1483 1483 1483 1483 1483 1483 1483 1483 1483 1483 1483 1483 1483 1483 1483 1482 1482 1482 1481 1481 1481 1481 1480 1479
1448 1448 1448 1448 1448 1449 1449 1450 1450 1451 1451 1452 1453 1453 1454 1454 1456 1457 1458 1460 1461 1463 1465 1467 1468 1469 1471 1472 1472 1473 1473 1473 1474 1474 1475 1476 1477 1478 1478 1479 1480 1480 1480 1481 1481 1481 1481 1481 1481 1481 1480 1480 1480 1480 1481 1481 1481 1481 1480 1480 1480 1480 1479 1479 1479 1479 1478 1478 1477
1445 1445 1445 1446 1446 1447 1447 1448 1448 1448 1449 1449 1450 1450 1451 1452 1453 1454 1456 1457 1458 1461 1463 1464 1466 1467 1468 1469 1470 1470 1471 1471 1471 1472 1473 1473 1474 1475 1476 1477 1478 1478 1478 1478 1478 1478 1478 1478 1478 1478 1478 1478 1478 1478 1478 1479 1478 1478 1478 1478 1478 1478 1478 1477 1477 1477 1476 1476 1475
1442 1443 1443 1443 1444 1444 1445 1445 1445 1446 1447 1447 1448 1448 1448 1449 1451 1452 1453 1455 1457 1458 1460 1462 1463 1464 1465 1466 1467 1468 1468 1468 1468 1469 1470 1471 1472 1473 1474 1475 1475 1476 1476 1476 1476 1476 1476 1476 1476 1476 1476 1476 1476 1476 1476 1476 1476 1476 1476 1476 1476 1475 1475 1475 1475 1475 1474 1473 1473
1440 1440 1441 1441 1442 1442 1442 1443 1443 1443 1444 1444 1445 1445 1446 1448 1448 1450 1451 1453 1454 1456 1457 1459 1460 1462 1463 1464 1464 1465 1465 1466 1466 1467 1468 1468 1469 1471 1472 1473 1473 1473 1473 1473 1473 1473 1473 1474 1474 1474 1474 1474 1473 1473 1474 1474 1474 1474 1473 1473 1473 1473 1473 1473 1473 1472 1472 1471 1471
1437 1438 1438 1439 1439 1440 1440 1440 1441 1441 1441 1442 1443 1443 1444 1445 1446 1448 1448 1450 1451 1453 1455 1456 1458 1459 1460 1461 1462 1462 1463 1463 1463 1464 1465 1466 1467 1468 1469 1470 1470 1471 1471 1471 1471 1471 1471 1471 1471 1472 1472 1471 1471 1471 1471 1472 1472 1472 1471 1471 1471 1471 1471 1471 1470 1470 1470 1469 1468
1435 1435 1436 1436 1437 1437 1438 1438 1438 1439 1439 1440 1441 1441 1442 1443 1444 1445 1446 1447 1448 1450 1452 1453 1455 1457 1458 1458 1459 1459 1460 1460 1461 1462 1463 1464 1465 1466 1467 1468 1468 1468 1468 1468 1468 1468 1469 1469 1469 1469 1469 1469 1469 1469 1469 1469 1469 1469 1469 1469 1469 1468 1468 1468 1468 1468 1467 1467 1466
1433 1433 1433 1434 1434 1435 1435 1436 1436 1437 1437 1438 1438 1439 1440 1440 1441 1442 1443 1444 1446 1447 1448 1450 1452 1453 1455 1456 1456 1457 1457 1458 1458 1459 1460 1461 1462 1463 1464 1465 1465 1465 1465 1466 1466 1466 1466 1466 1467 1467 1467 1467 1467 1467 1467 1467 1467 1467 1467 1467 1467 1466 1466 1466 1466 1466 1465 1464 1464
1431 1431 1431 1432 1432 1433 1433 1433 1434 1434 1435 1435 1436 1437 1437 1438 1438 1439 1440 1441 1442 1443 1445 1447 1449 1451 1452 1453 1453 1454 1454 1455 1456 1457 1458 1459 1460 1461 1462 1462 1463 1463 1463 1463 1463 1464 1464 1464 1464 1464 1464 1464 1464 1464 1464 1464 1464 1464 1464 1464 1464 1464 1464 1464 1464 1463 1463 1462 1462
1430 1429 1429 1429 1430 1430 1431 1431 1431 1432 1432 1433 1433 1434 1434 1435 1436 1436 1437 1438 1439 1440 1442 1443 1445 1447 1448 1449 1450 1451 1452 1452 1453 1454 1455 1456 1457 1458 1459 1459 1460 1460 1460 1461 1461 1461 1462 1462 1462 1462 1462 1462 1462 1462 1462 1462 1462 1462 1462 1462 1462 1462 1462 1462 1462 1461 1461 1460 1459
1428 1428 1427 1427 1428 1428 1428 1428 1428 1429 1429 1430 1430 1431 1431 1432 1433 1433 1434 1435 1436 1437 1438 1440 1442 1443 1445 1446 1447 1448 1448 1449 1451 1452 1453 1453 1454 1455 1456 1457 1457 1458 1458 1458 1458 1459 1459 1459 1459 1459 1459 1459 1459 1459 1460 1460 1460 1460 1459 1459 1459 1459 1459 1459 1459 1459 1458 1458 1457
1425 1425 1425 1425 1425 1425 1425 1425 1425 1426 1426 1427 1427 1428 1428 1428 1429 1430 1430 1431 1433 1433 1435 1436 1438 1440 1441 1443 1444 1445 1446 1447 1448 1449 1450 1451 1451 1452 1453 1454 1454 1455 1455 1456 1456 1456 1457 1457 1457 1457 1457 1457 1457 1457 1457 1457 1457 1457 1457 1457 1457 1457 1457 1457 1457 1457 1456 1455 1455
1423 1423 1423 1422 1422 1422 1422 1422 1423 1423 1423 1423 1424 1424 1425 1425 1426 1426 1427 1428 1429 1430 1431 1432 1434 1436 1438 1439 1441 1442 1443 1443 1445 1446 1447 1448 1448 1449 1450 1451 1452 1452 1453 1453 1453 1454 1454 1454 1455 1455 1455 1455 1455 1455 1455 1455 1455 1455 1455 1455 1455 1455 1455 1455 1455 1454 1454 1453 1453
1420 1420 1420 1420 1419 1419 1419 1419 1420 1420 1420 1420 1421 1422 1422 1422 1423 1423 1424 1424 1426 1426 1427 1428 1430 1433 1434 1436 1437 1438 1439 1440 1442 1443 1444 1444 1446 1447 1448 1448 1449 1450 1450 1451 1451 1451 1452 1452 1452 1452 1452 1452 1452 1453 1453 1453 1453 1453 1453 1453 1453 1453 1453 1453 1453 1452 1452 1451 1450
1418 1418 1418 1417 1417 1417 1417 1417 1417 1418 1418 1418 1418 1419 1419 1419 1420 1420 1421 1421 1422 1423 1424 1425 1427 1429 1431 1433 1434 1435 1436 1437 1438 1440 1441 1442 1443 1444 1445 1446 1447 1447 1448 1448 1448 1449 1449 1449 1450 1450 1450 1450 1450 1450 1450 1451 1451 1451 1451 1451 1451 1451 1451 1451 1450 1450 1449 1448 1448
1417 1416 1416 1416 1415 1415 1415 1415 1415 1415 1416 1416 1416 1416 1416 1417 1417 1417 1418 1418 1419 1420 1421 1422 1424 1426 1428 1429 1431 1432 1433 1434 1436 1437 1438 1439 1441 1442 1443 1443 1444 1444 1445 1445 1446 1446 1447 1447 1447 1448 1448 1448 1448 1448 1448 1448 1448 1448 1448 1448 1448 1448 1448 1448 1448 1448 1447 1446 1446
1415 1415 1415 1414 1414 1414 1413 1413 1413 1413 1413 1414 1413 1413 1413 1414 1414 1414 1415 1415 1416 1417 1418 1419 1421 1422 1424 1426 1428 1429 1430 1432 1433 1434 1436 1437 1438 1439 1440 1441 1441 1442 1442 1443 1443 1444 1444 1444 1445 1445 1445 1445 1446 1446 1446 1446 1446 1446 1446 1446 1446 1446 1446 1446 1446 1445 1445 1444 1443
1413 1413 1413 1413 1413 1412 1412 1412 1412 1412 1412 1411 1411 1411 1411 1411 1411 1412 1412 1413 1413 1414 1415 1416 1418 1419 1421 1423 1425 1426 1428 1429 1430 1432 1433 1434 1435 1436 1438 1438 1439 1439 1440 1440 1441 1441 1442 1442 1442 1443 1443 1443 1443 1443 1444 1444 1444 1444 1444 1444 1444 1444 1444 1444 1443 1443 1443 1442 1442
1412 1411 1411 1411 1411 1410 1410 1410 1410 1409 1409 1409 1408 1408 1408 1408 1408 1409 1410 1411 1411 1412 1413 1414 1415 1417 1419 1421 1423 1424 1425 1426 1428 1429 1430 1432 1433 1434 1435 1436 1436 1437 1437 1438 1438 1439 1439 1439 1440 1440 1440 1441 1441 1441 1442 1442 1442 1442 1442 1442 1442 1442 1442 1442 1441 1441 1440 1440 1439
1410 1409 1408 1408 1408 1408 1408 1408 1408 1407 1407 1406 1406 1406 1405 1406 1406 1407 1408 1408 1408 1409 1410 1412 1413 1415 1417 1419 1420 1422 1422 1423 1425 1426 1428 1429 1430 1431 1433 1433 1434 1434 1435 1435 1436 1436 1437 1437 1438 1438 1438 1438 1439 1439 1439 1440 1440 1440 1440 1439 1439 1439 1439 1439 1439 1438 1438 1438 1438
1408 1407 1406 1406 1406 1406 1406 1406 1405 1405 1404 1403 1403 1402 1402 1403 1403 1404 1405 1405 1406 1407 1408 1410 1412 1413 1415 1417 1418 1419 1420 1420 1422 1423 1425 1426 1428 1429 1430 1430 1431 1432 1432 1433 1433 1434 1434 1435 1435 1436 1436 1436 1437 1437 1437 1437 1437 1437 1437 1437 1437 1437 1437 1437 1437 1436 1436 1436 1435
1407 1406 1405 1405 1404 1405 1404 1404 1403 1402 1401 1400 1399 1399 1399 1400 1400 1401 1402 1403 1404 1405 1407 1408 1410 1411 1413 1414 1415 1416 1417 1418 1419 1421 1422 1423 1425 1426 1427 1428 1428 1429 1430 1431 1432 1432 1432 1433 1433 1433 1434 1434 1434 1435 1435 1435 1435 1435 1435 1435 1435 1435 1434 1434 1434 1434 1434 1433 1433
1407 1406 1405 1404 1404 1403 1402 1401 1400 1398 1397 1397 1396 1396 1397 1397 1398 1399 1400 1401 1402 1403 1405 1406 1407 1408 1410 1411 1412 1413 1414 1415 1416 1418 1420 1421 1423 1423 1424 1425 1426 1427 1428 1428 1429 1430 1430 1431 1431 1431 1432 1432 1433 1433 1433 1433 1433 1433 1433 1433 1433 1432 1432 1432 1432 1432 1431 1431 1430
1408 1407 1405 1404 1402 1400 1399 1398 1397 1396 1395 1395 1394 1394 1395 1395 1396 1397 1398 1398 1400 1401 1402 1403 1404 1405 1406 1408 1408 1410 1411 1412 1414 1416 1417 1419 1420 1421 1422 1423 1424 1425 1426 1427 1427 1428 1428 1428 1429 1429 1429 1430 1430 1430 1431 1431 1431 1431 1431 1431 1430 1430 1430 1430 1429 1429 1428 1428 1427
1405 1404 1403 1401 1399 1398 1396 1395 1394 1393 1393 1393 1393 1393 1393 1393 1393 1394 1395 1396 1397 1398 1399 1400 1401 1402 1403 1404 1405 1406 1408 1410 1412 1413 1415 1417 1418 1419 1420 1421 1422 1423 1423 1424 1425 1425 1426 1426 1427 1427 1427 1427 1428 1428 1428 1428 1428 1428 1428 1428 1428 1428 1428 1427 1426 1426 1425 1425 1425
1401 1400 1398 1397 1396 1395 1394 1393 1392 1392 1391 1391 1391 1391 1391 1391 1391 1392 1393 1393 1394 1394 1395 1396 1397 1398 1399 1400 1402 1404 1406 1408 1409 1411 1413 1414 1415 1416 1417 1418 1419 1420 1422 1422 1423 1423 1424 1424 1425 1425 1425 1425 1425 1425 1426 1426 1426 1426 1426 1426 1425 1425 1425 1424 1424 1424 1423 1423 1423
1398 1396 1395 1394 1393 1392 1391 1390 1390 1389 1389 1389 1389 1388 1388 1389 1389 1389 1389 1390 1390 1391 1392 1393 1394 1395 1396 1398 1399 1402 1403 1405 1407 1409 1410 1412 1413 1414 1415 1416 1417 1418 1419 1420 1421 1421 1422 1422 1423 1423 1423 1424 1423 1423 1423 1423 1423 1423 1423 1423 1423 1423 1423 1423 1423 1422 1422 1422 1422
1395 1394 1393 1391 1390 1389 1389 1388 1388 1387 1387 1387 1386 1386 1386 1386 1386 1386 1386 1387 1387 1388 1389 1391 1392 1393 1394 1396 1398 1399 1401 1403 1405 1406 1408 1409 1411 1412 1413 1414 1415 1416 1417 1418 1418 1419 1419 1420 1420 1421 1421 1422 1422 1422 1421 1421 1421 1421 1421 1421 1421 1421 1421 1421 1421 1421 1420 1420 1420
1393 1391 1390 1389 1388 1387 1387 1386 1386 1385 1385 1384 1384 1384 1383 1383 1383 1383 1383 1384 1385 1386 1387 1388 1389 1390 1392 1393 1395 1397 1399 1401 1402 1404 1405 1407 1409 1410 1411 1412 1413 1414 1415 1416 1416 1417 1417 1418 1418 1418 1419 1420 1420 1420 1420 1419 1419 1419 1419 1419 1419 1419 1419 1419 1419 1418 1418 1418 1418
1390 1389 1388 1387 1386 1385 1385 1384 1383 1383 1383 1382 1382 1381 1381 1380 1381 1381 1381 1382 1383 1383 1384 1385 1386 1388 1389 1391 1393 1395 1397 1398 1400 1402 1404 1405 1407 1408 1409 1410 1410 1411 1413 1413 1414 1414 1415 1415 1416 1417 1417 1418 1418 1418 1418 1418 1418 1417 1417 1417 1417 1417 1417 1417 1417 1417 1416 1416 1416
1387 1386 1385 1385 1384 1383 1383 1382 1382 1381 1380 1380 1379 1378 1378 1378 1378 1379 1379 1380 1380 1381 1382 1383 1384 1386 1387 1389 1391 1393 1394 1396 1398 1400 1402 1403 1404 1406 1406 1407 1408 1409 1410 1411 1412 1412 1413 1413 1414 1414 1415 1416 1416 1416 1416 1415 1415 1415 1415 1415 1415 1415 1415 1415 1415 1414 1414 1414 1414
1385 1384 1383 1383 1382 1381 1381 1380 1379 1378 1378 1377 1377 1377 1377 1377 1377 1377 1377 1378 1379 1380 1380 1381 1382 1383 1385 1387 1388 1390 1392 1394 1396 1398 1399 1401 1402 1403 1404 1405 1406 1407 1408 1409 1409 1410 1411 1411 1412 1412 1413 1413 1413 1413 1413 1413 1413 1413 1413 1413 1413 1413 1413 1413 1413 1413 1412 1412 1412
1383 1382 1381 1380 1380 1379 1378 1377 1377 1376 1375 1375 1375 1375 1375 1375 1375 1375 1376 1377 1377 1377 1378 1379 1380 1381 1382 1384 1385 1387 1389 1391 1393 1395 1397 1398 1400 1401 1402 1403 1403 1405 1406 1407 1407 1408 1408 1409 1410 1410 1411 1411 1411 1411 1411 1411 1411 1411 1411 1411 1411 1411 1411 1411 1411 1410 1410 1410 1410
1381 1380 1379 1378 1377 1376 1375 1375 1374 1373 1373 1373 1373 1373 1373 1373 1373 1373 1374 1374 1374 1375 1375 1376 1377 1378 1379 1380 1382 1384 1386 1389 1391 1393 1395 1396 1397 1398 1399 1400 1401 1403 1403 1404 1405 1406 1406 1407 1408 1408 1409 1409 1409 1409 1409 1409 1409 1409 1409 1409 1409 1409 1409 1409 1408 1408 1408 1408 1408
1378 1378 1377 1376 1375 1374 1373 1372 1372 1371 1371 1371 1371 1371 1371 1371 1371 1372 1372 1372 1372 1372 1373 1373 1374 1375 1376 1378 1380 1382 1384 1387 1389 1391 1392 1393 1395 1396 1397 1398 1399 1400 1401 1402 1403 1403 1404 1405 1405 1406 1407 1407 1407 1407 1407 1407 1407 1407 1407 1407 1407 1407 1407 1407 1406 1406 1406 1406 1406
1376 1375 1375 1374 1373 1372 1371 1370 1369 1368 1368 1368 1368 1368 1368 1369 1369 1369 1370 1370 1370 1370 1371 1371 1372 1373 1375 1377 1378 1380 1383 1385 1387 1388 1390 1391 1393 1394 1395 1396 1397 1398 1399 1400 1401 1401 1402 1403 1403 1404 1404 1404 1405 1405 1405 1405 1405 1405 1405 1405 1405 1404 1404 1404 1404 1404 1404 1404 1404
1374 1373 1373 1372 1370 1369 1368 1367 1367 1367 1366 1366 1366 1366 1366 1366 1367 1367 1368 1368 1368 1368 1369 1369 1370 1372 1373 1375 1377 1378 1380 1382 1384 1386 1388 1389 1391 1392 1393 1394 1395 1396 1397 1398 1399 1399 1400 1400 1401 1402 1402 1403 1403 1403 1403 1403 1403 1403 1403 1403 1403 1403 1402 1402 1402 1402 1402 1402 1402
1373 1372 1370 1369 1368 1367 1366 1365 1365 1364 1364 1364 1364 1364 1364 1364 1364 1365 1365 1365 1366 1366 1367 1368 1368 1370 1371 1373 1375 1376 1378 1380 1382 1384 1385 1387 1389 1390 1391 1392 1393 1393 1395 1396 1397 1397 1398 1398 1399 1400 1400 1400 1400 1401 1401 1401 1401 1401 1401 1401 1401 1401 1400 1400 1400 1400 1400 1400 1400
Wind_Speed
40 39 39 38 38 39 39 39 40 41 42 42 42 42 42 42 43 44 44 45 45 45 44 43 41 39 37 35 33 32 31 30 29 28 27 27 27 27 27 27 26 25 25 24 24 24 24 23 23 23 22 22 22 22 21 21 21 21 21 22 23 23 23 23 23 23 23 23 24
40 39 39 39 40 40 40 40 40 41 41 41 41 41 41 41 42 43 43 44 44 44 43 42 41 39 37 35 33 32 31 30 29 28 28 28 28 28 28 27 26 25 25 24 25 25 24 24 23 23 23 22 22 22 22 21 21 21 22 22 23 23 23 23 23 23 23 23 23
40 40 40 41 40 40 40 40 39 39 40 40 40 40 41 41 42 42 43 43 44 44 44 43 41 39 37 35 33 32 31 30 29 29 28 28 28 28 27 27 26 25 25 25 25 25 24 24 23 23 23 23 22 22 22 21 21 21 22 23 23 23 23 23 23 23 23 23 23
42 42 42 41 41 41 40 40 40 40 40 40 41 41 41 41 42 42 43 43 44 44 44 43 42 40 37 35 34 32 31 30 30 29 29 29 28 28 27 26 26 25 25 25 25 25 25 24 24 23 23 23 23 23 22 22 21 22 22 23 23 23 23 23 23 23 23 23 24
44 44 43 43 42 42 42 42 42 42 42 41 41 41 42 42 42 42 43 43 44 44 44 43 42 40 38 36 34 33 32 31 30 30 30 29 28 28 27 26 25 25 25 25 25 25 25 24 24 24 24 23 23 23 23 22 22 22 22 23 23 23 23 23 23 23 23 24 24
45 45 45 44 44 44 44 43 43 43 42 42 42 42 41 41 41 41 42 43 43 43 44 43 42 41 39 36 34 33 32 32 31 31 30 29 28 27 26 26 25 24 25 25 26 25 25 25 24 24 24 24 24 23 23 22 22 22 23 23 23 23 24 23 23 23 23 24 24
45 45 45 45 45 44 44 44 44 43 42 42 41 41 40 40 40 40 40 41 42 43 44 44 43 41 39 37 35 34 33 33 32 31 30 29 28 27 26 25 24 24 25 25 26 26 25 25 25 24 24 24 24 24 23 23 22 23 23 23 23 24 24 24 23 23 24 24 24
45 45 45 45 44 44 44 44 44 43 43 42 41 40 40 39 39 39 39 40 42 43 44 44 44 42 40 38 36 35 34 33 32 31 30 29 27 26 25 24 24 24 25 25 26 26 26 25 25 24 24 25 25 24 24 23 22 23 23 23 23 24 24 24 24 24 24 24 24
44 44 44 44 44 44 44 44 44 43 42 41 41 40 40 39 39 39 39 40 41 42 44 44 44 42 40 38 36 35 34 33 32 31 30 28 27 26 25 24 24 24 25 26 26 26 25 25 25 25 25 25 25 25 24 23 23 23 23 23 24 24 24 24 24 24 24 24 24
42 42 43 43 43 43 43 44 44 43 42 42 41 40 40 40 39 39 39 39 40 42 44 44 44 43 41 39 37 36 34 33 32 31 30 28 27 26 25 24 24 25 25 25 25 25 25 25 25 25 25 25 25 25 24 23 23 23 23 23 24 24 24 24 24 24 24 24 25
39 40 41 42 42 42 43 43 43 43 42 41 40 40 39 39 39 39 38 39 40 42 43 44 44 43 41 39 38 36 35 34 32 31 29 28 27 25 25 24 25 25 25 25 25 25 25 25 25 25 26 26 26 25 24 23 23 23 23 23 24 24 24 24 24 24 25 25 25
36 38 39 40 41 41 42 42 42 42 41 40 40 39 39 38 38 38 38 39 40 41 42 43 44 44 42 40 38 37 35 34 33 31 30 28 27 26 25 25 25 25 25 25 25 25 25 25 25 26 26 26 26 25 24 23 23 23 23 24 24 24 25 24 24 24 25 25 25
34 36 37 38 39 40 40 40 40 40 40 39 39 38 38 38 37 37 38 38 39 40 42 43 44 44 43 41 39 37 36 34 33 31 30 29 27 26 26 25 26 25 25 25 24 25 25 25 26 26 27 26 26 25 24 23 23 23 24 24 24 25 25 24 24 24 25 25 25
32 34 35 36 37 37 38 38 38 38 38 38 38 37 37 37 37 37 37 37 38 39 41 42 44 45 44 42 40 38 36 35 33 31 30 29 28 27 26 26 26 26 25 24 24 25 25 26 26 26 27 27 26 25 24 23 23 23 24 24 24 25 24 24 24 24 25 25 25
29 30 31 32 33 34 34 35 36 36 37 37 36 36 36 36 36 36 36 36 37 38 40 42 44 45 44 43 41 39 37 35 33 32 31 30 28 28 27 27 26 26 25 24 24 25 25 26 26 27 27 27 26 25 24 24 23 24 24 24 24 24 24 24 24 24 24 25 25
25 26 27 28 29 30 31 32 33 34 34 35 35 35 35 35 35 36 36 36 36 37 39 41 44 45 45 43 41 39 37 35 33 32 31 30 29 28 28 27 27 26 25 24 24 25 25 25 26 27 27 27 26 25 24 24 24 24 24 24 24 24 24 24 24 24 24 25 25
22 23 24 25 26 27 28 29 30 31 32 32 33 33 34 34 34 35 35 35 35 36 38 40 43 44 45 44 42 40 38 36 34 33 32 31 30 29 28 28 27 26 25 25 25 25 25 25 26 27 27 27 26 25 24 24 24 24 24 24 24 24 24 24 24 24 24 25 25
21 22 22 23 24 25 25 26 27 28 29 30 31 32 32 33 33 34 34 34 35 35 37 38 41 44 45 45 43 41 39 36 35 34 33 32 30 29 29 28 28 27 26 25 25 25 25 25 26 27 27 27 26 25 24 24 24 24 24 24 24 24 24 24 24 24 24 25 25
20 21 22 22 23 23 24 24 25 26 27 28 29 30 31 31 32 33 34 34 34 35 35 37 40 42 44 45 44 42 39 37 35 34 33 32 31 30 29 29 28 27 27 26 25 25 25 25 26 27 27 27 26 25 24 24 24 24 24 24 24 24 24 23 24 24 24 24 24
20 20 21 21 22 22 23 23 24 24 25 26 27 28 29 30 31 32 33 34 34 34 35 36 38 41 43 44 44 42 39 37 35 34 33 32 31 30 30 29 28 28 27 26 25 25 25 25 26 27 27 26 25 25 24 24 24 24 24 24 24 24 24 24 24 24 24 24 24
19 19 20 20 20 21 21 22 22 23 25 26 27 28 29 30 31 32 33 33 34 34 35 35 37 39 42 43 43 42 39 37 35 34 33 32 32 31 30 29 29 28 28 27 26 25 25 25 26 26 26 26 25 25 24 24 24 24 24 24 24 24 24 24 24 24 24 23 23
19 19 20 21 21 21 21 22 22 23 24 25 26 28 29 30 30 31 32 33 34 35 35 35 35 37 40 42 42 41 40 37 35 34 33 33 32 31 30 30 30 29 28 27 26 25 25 25 26 26 26 26 25 25 24 24 24 24 24 24 24 24 24 24 24 24 23 23 22
20 21 22 23 25 25 26 25 25 25 25 25 26 27 28 29 30 31 32 34 35 35 35 34 34 36 38 40 41 41 39 38 36 34 34 33 32 31 31 31 30 29 28 27 26 25 24 25 25 26 26 25 25 25 24 24 24 24 24 24 24 24 24 24 24 24 23 22 21
22 22 24 26 28 29 30 31 30 29 27 26 26 27 28 29 30 32 33 34 34 34 34 33 33 34 36 38 39 40 39 38 36 35 34 34 33 32 31 31 31 30 28 27 26 24 24 24 25 25 25 25 25 24 24 24 24 24 24 24 25 25 25 25 24 24 23 22 21
27 26 27 28 29 31 33 34 34 32 29 27 26 26 27 29 30 31 32 33 33 33 33 32 32 33 35 37 39 40 39 38 36 35 35 34 33 32 32 31 31 30 28 27 25 24 23 24 24 24 25 24 24 24 24 24 24 24 24 25 25 25 25 25 25 24 23 22 20
34 33 33 32 33 34 36 36 34 32 30 28 27 27 27 28 29 29 30 31 31 31 31 31 31 32 34 37 39 40 39 38 37 36 35 34 33 33 32 32 31 30 28 26 25 23 23 23 24 24 24 24 24 24 24 25 24 24 24 25 25 25 26 26 25 24 23 22 21
39 39 39 38 37 35 34 34 33 31 30 28 28 27 27 27 28 28 29 29 29 29 29 30 31 32 35 37 39 40 40 38 37 36 35 34 34 33 33 32 31 30 28 26 24 23 22 23 23 24 24 24 24 24 24 24 24 24 24 25 25 26 26 25 24 23 22 22 21
40 41 41 39 37 34 33 32 32 31 30 28 27 27 26 26 27 27 27 27 27 27 28 30 31 33 35 38 40 40 40 39 37 36 35 34 34 33 33 32 31 29 27 25 23 22 22 23 23 24 24 24 25 25 25 25 24 25 25 25 26 26 25 24 23 23 23 23 23
39 39 38 37 36 35 34 33 32 31 29 28 27 25 25 25 25 24 24 25 26 27 29 31 32 34 36 38 40 40 40 39 37 36 35 34 34 33 33 32 30 28 26 24 23 22 22 22 23 23 23 24 24 25 25 25 25 25 25 25 25 25 24 23 23 23 23 23 24
37 37 36 36 36 35 34 32 31 29 28 26 25 24 23 22 22 22 23 24 26 28 29 30 32 34 37 39 40 40 40 39 37 36 35 35 34 33 32 31 30 28 26 24 23 22 22 22 23 23 23 23 24 24 25 25 25 25 25 25 24 24 23 23 23 23 23 23 25
37 37 36 36 35 34 32 31 29 27 25 24 23 22 21 21 21 22 23 24 26 27 28 30 32 34 36 38 39 40 39 38 37 36 35 35 34 33 32 31 29 27 25 24 22 22 22 22 23 23 23 23 23 24 24 25 25 25 25 24 24 24 23 23 22 23 23 24 26
37 36 36 35 34 32 30 28 26 25 23 22 21 21 21 21 22 22 24 25 26 27 28 30 32 33 35 37 38 39 39 38 37 36 35 34 33 32 31 30 29 27 25 23 22 22 22 23 23 23 23 23 23 23 24 24 25 25 25 25 24 24 23 23 23 23 25 26 26
35 35 34 33 32 30 28 27 25 23 22 22 21 21 22 22 23 24 25 26 26 27 28 30 31 32 34 36 38 39 39 38 37 35 34 33 33 32 31 30 29 27 25 23 22 22 22 23 23 23 23 22 23 23 24 24 25 25 25 25 24 23 23 23 23 24 25 25 25
33 33 32 31 29 28 27 26 24 23 23 23 23 23 24 24 24 25 25 25 26 26 27 28 30 31 33 36 37 38 38 38 36 35 34 33 33 32 31 30 28 27 25 23 22 22 22 23 23 23 22 22 22 23 24 24 25 25 25 24 24 23 23 23 24 24 25 24 23
31 30 30 29 27 27 26 25 25 24 24 24 24 24 25 24 24 24 24 24 24 25 26 27 29 30 32 35 37 38 38 37 36 35 34 33 33 32 31 30 28 26 25 23 22 22 22 22 23 22 22 22 22 23 24 25 25 25 24 24 23 23 23 24 24 24 24 23 21
29 29 28 27 26 25 25 25 25 25 25 25 24 24 24 23 22 22 21 22 23 24 26 27 28 30 32 35 37 38 38 38 36 35 34 34 33 32 31 30 28 26 24 23 22 22 22 22 22 22 22 22 23 23 24 24 24 24 24 23 23 23 23 24 24 24 23 21 19
29 28 27 26 26 25 25 25 25 25 25 25 24 23 22 22 21 21 20 21 23 25 26 27 29 31 33 36 37 38 38 37 36 35 34 34 33 32 31 29 28 26 24 23 22 22 22 22 22 22 22 22 23 24 24 24 24 24 23 23 23 23 23 23 23 23 21 19 17
28 28 27 27 26 25 25 25 25 25 25 24 23 23 23 22 22 21 21 21 23 25 26 27 29 31 33 36 37 38 38 37 36 35 35 34 33 32 31 29 27 26 24 23 22 22 22 22 22 22 22 22 23 23 24 24 23 23 23 23 23 23 23 23 23 22 20 17 15
28 28 27 27 26 25 25 25 25 24 24 23 23 23 23 23 23 22 22 22 23 24 25 27 29 31 33 35 36 37 37 37 36 35 35 34 33 32 30 29 27 25 24 22 22 22 22 22 22 22 22 22 23 23 23 23 23 23 22 22 22 22 22 22 22 21 19 16 15
28 27 27 26 25 24 24 24 23 23 22 23 23 23 23 23 23 22 22 23 23 24 25 27 28 30 32 34 36 37 37 37 36 35 35 34 33 31 30 28 27 25 24 22 22 22 22 22 22 21 21 22 22 23 23 23 23 22 22 22 22 22 23 22 21 20 17 15 14
28 26 25 24 23 23 22 22 22 21 22 22 22 22 22 22 22 22 23 23 24 24 25 26 28 29 31 33 35 37 37 37 36 35 34 33 32 31 29 28 27 25 24 23 22 22 22 22 22 21 21 22 22 22 23 22 22 22 21 21 21 22 23 22 21 19 16 14 14
Wind_Direction
266 266 267 267 268 267 268 268 267 266 265 265 265 264 263 262 259 258 256 253 252 251 251 252 254 255 255 255 255 255 255 254 254 253 253 253 255 256 258 260 261 262 264 264 264 263 263 263 264 266 268 269 271 273 274 276 278 279 281 282 283 285 286 286 287 288 288 288 288
266 266 266 266 266 267 267 267 266 266 265 265 265 264 263 262 260 258 256 254 252 251 251 252 253 253 254 254 254 254 253 252 251 251 251 252 254 256 258 260 261 262 264 264 264 263 263 263 264 265 267 269 271 272 274 276 277 278 279 281 282 284 285 285 287 288 289 289 289
266 266 266 265 265 265 265 265 266 266 266 266 265 264 263 262 260 258 256 254 252 251 250 251 252 252 253 253 253 252 251 250 249 249 250 251 253 255 258 259 261 262 263 264 264 263 263 263 264 265 267 269 270 272 274 275 276 277 278 279 281 282 283 285 287 288 288 288 289
266 266 265 265 266 266 266 267 268 268 268 267 266 265 264 262 260 258 256 254 252 250 249 249 251 252 252 252 252 251 250 249 248 248 249 251 253 255 257 259 260 262 263 264 264 264 263 263 263 264 266 268 270 272 273 274 275 275 277 278 280 281 282 284 286 287 288 289 289
267 267 268 268 268 269 269 269 269 269 269 268 267 266 265 264 261 259 256 254 251 249 248 249 250 251 251 251 251 250 249 248 247 247 248 250 252 255 257 258 260 261 263 264 264 263 263 263 263 264 266 268 270 271 272 273 273 274 275 277 278 280 282 284 285 286 288 288 289
269 269 270 270 270 270 270 269 269 269 269 268 268 268 267 265 263 260 258 254 251 249 248 248 248 249 250 250 249 248 247 246 246 246 247 249 252 254 256 257 259 261 263 264 264 263 263 263 263 264 266 268 270 270 271 271 272 273 275 276 278 280 282 283 285 286 287 288 289
270 270 270 271 271 271 270 270 270 270 270 269 269 269 268 267 265 263 260 257 253 250 248 247 247 248 249 249 249 248 247 246 246 247 247 249 251 253 255 257 258 260 262 263 263 263 262 262 263 265 267 268 269 270 270 270 271 272 274 276 278 280 282 283 285 286 287 288 289
271 271 271 271 272 272 272 271 271 271 271 271 271 271 270 269 267 265 262 258 254 250 248 247 247 248 248 249 249 248 247 247 247 247 248 248 250 251 253 255 257 259 261 263 263 263 262 262 263 265 267 268 268 269 269 269 270 271 273 276 278 280 281 283 284 285 286 287 288
273 273 274 273 273 273 272 272 272 271 272 272 273 272 271 270 268 265 262 258 254 251 248 247 247 247 248 249 249 248 248 247 247 247 247 247 248 250 252 253 256 258 260 262 262 262 262 262 264 266 267 268 268 268 269 269 269 271 273 275 278 279 281 282 284 285 286 287 288
276 277 276 276 275 274 274 273 272 273 273 273 274 273 272 270 268 265 262 259 255 252 249 247 246 246 247 248 248 248 248 248 247 247 246 246 247 248 250 252 254 257 259 261 262 262 262 263 264 266 268 268 267 267 267 268 269 271 273 275 277 279 280 282 283 285 286 287 288
280 280 279 278 277 276 275 274 274 274 274 274 274 273 272 270 268 266 263 259 256 252 249 246 245 245 246 247 248 248 248 248 247 246 245 244 245 246 248 250 253 256 258 260 261 261 261 263 265 267 268 268 267 266 266 267 269 271 273 275 277 279 281 282 284 285 287 288 288
282 282 281 280 279 278 277 276 276 276 275 275 275 274 272 271 269 266 263 259 256 252 249 246 245 244 245 246 247 247 247 247 246 244 243 243 243 244 246 248 251 254 257 258 259 260 261 263 266 268 268 267 265 265 265 267 268 271 273 276 278 279 281 283 285 286 287 288 288
284 283 282 282 281 280 279 278 278 277 277 276 275 274 273 271 269 266 263 260 257 253 249 246 244 243 244 244 245 246 246 246 245 243 242 241 241 242 243 246 249 252 255 257 258 259 261 264 266 267 267 265 265 264 265 267 268 271 273 275 277 279 281 283 285 286 286 286 287
287 285 284 284 283 282 281 280 280 279 278 277 276 275 273 271 269 266 264 261 257 253 249 246 243 242 242 243 244 245 245 245 244 242 241 240 239 239 241 244 248 251 253 255 257 259 261 264 266 267 266 264 264 264 265 267 268 271 273 275 277 279 281 283 284 285 285 286 286
291 290 289 288 287 286 285 283 282 281 280 279 278 276 274 272 269 267 264 261 258 253 249 245 243 241 241 242 243 244 244 244 243 241 239 237 237 238 240 243 247 250 252 254 256 258 261 263 265 265 264 264 264 264 265 267 269 271 273 275 277 279 281 283 284 285 285 285 286
299 298 296 294 292 291 289 287 286 284 283 282 280 278 275 273 271 268 265 262 258 254 249 245 242 240 240 240 241 242 243 243 241 240 237 236 235 236 239 243 246 249 251 252 254 257 260 262 264 264 264 263 263 264 265 267 269 271 273 275 277 279 281 282 284 284 285 285 286
310 307 304 301 299 296 294 292 290 288 287 286 284 281 278 275 272 270 267 263 259 255 250 246 242 240 239 239 240 241 241 241 240 238 236 234 234 236 238 242 246 248 250 252 254 256 259 261 263 263 263 263 263 264 265 267 269 271 273 275 277 279 280 282 283 284 285 285 286
322 318 314 310 307 304 301 298 295 293 291 289 287 284 281 277 275 272 268 265 261 256 252 247 243 240 238 238 239 240 241 241 240 238 236 234 234 236 238 242 245 248 250 251 253 255 258 260 261 262 262 263 263 264 266 267 269 271 273 275 276 278 280 281 282 283 284 286 287
333 328 323 319 316 312 308 303 300 297 294 292 289 286 282 279 276 273 270 266 262 258 253 248 244 240 238 238 239 240 241 242 241 238 236 234 234 235 238 241 245 247 249 251 252 255 257 259 261 261 262 262 263 265 266 267 269 271 272 274 276 277 279 280 282 283 284 286 287
341 337 332 328 323 317 312 307 303 299 296 293 289 286 282 279 276 273 270 267 263 259 255 250 245 241 238 237 238 240 241 242 240 238 235 233 233 235 238 241 245 248 250 251 252 254 256 258 260 261 261 262 263 264 266 267 269 270 272 274 275 277 278 279 281 283 285 287 288
348 344 340 334 328 322 316 311 306 301 297 292 288 285 282 279 276 273 271 268 265 261 257 252 246 241 238 237 237 239 240 241 239 236 234 232 232 234 238 242 245 248 249 250 251 253 255 257 259 260 261 262 263 264 265 267 268 270 272 273 274 276 277 279 281 283 285 287 288
351 348 345 340 336 331 325 319 313 306 299 294 289 286 282 279 276 274 271 268 265 262 258 254 249 243 239 237 237 238 240 240 238 235 232 231 232 235 238 242 245 247 249 250 251 252 254 256 258 260 261 262 263 264 265 266 268 269 271 272 274 275 276 278 280 283 286 287 288
347 346 344 342 339 335 331 326 320 313 304 297 291 286 282 279 277 274 270 267 265 262 259 255 250 245 241 238 237 238 239 239 236 233 231 230 232 234 238 241 245 247 249 249 250 251 253 256 258 259 260 261 262 264 265 266 267 269 270 272 273 274 276 278 280 282 285 286 287
340 340 339 337 334 330 326 322 317 312 305 298 292 287 283 280 277 273 270 268 265 263 260 256 251 246 241 238 237 237 238 238 235 231 229 229 231 234 238 242 245 247 249 249 250 251 253 255 257 258 260 261 262 264 264 265 267 268 270 272 273 274 276 277 279 281 283 285 287
336 334 331 328 323 317 313 310 307 305 301 296 291 286 283 279 276 274 271 269 267 265 261 258 252 246 240 237 236 236 236 235 233 230 229 229 231 234 238 242 245 247 248 249 250 250 252 255 257 258 259 260 262 263 264 265 267 268 270 272 273 275 276 277 278 279 282 285 288
328 325 321 316 310 305 301 300 299 298 296 293 289 286 282 280 277 274 272 270 268 266 263 258 252 245 239 236 234 234 234 233 231 230 229 230 232 235 239 242 245 247 248 249 249 250 252 255 256 258 259 259 260 261 263 265 267 268 270 271 272 273 274 275 277 279 283 288 291
316 314 310 306 303 300 298 298 297 296 295 292 289 287 285 282 279 276 273 270 268 266 262 256 250 243 238 235 233 232 232 231 230 229 229 230 232 235 239 242 245 247 248 248 248 249 252 254 256 257 259 260 260 261 262 264 265 266 267 268 269 271 272 275 279 284 289 293 297
305 303 302 301 301 302 302 301 299 297 296 294 292 290 287 284 281 277 275 272 268 263 258 252 246 241 237 234 232 231 230 230 229 228 229 230 232 235 239 242 245 247 247 247 247 248 250 252 254 256 259 261 262 263 264 265 265 266 266 267 269 272 275 280 285 290 295 298 302
301 300 301 303 305 306 305 303 301 299 297 295 293 291 288 285 282 278 274 269 263 257 252 248 244 240 236 233 231 230 230 229 229 228 229 230 232 235 239 242 244 246 247 246 246 247 249 251 253 254 257 260 263 265 267 268 268 269 270 272 274 277 281 285 289 292 295 298 300
306 306 307 309 309 309 307 304 302 300 298 295 293 290 287 284 280 275 269 264 259 254 251 247 244 240 236 233 231 230 229 229 229 229 229 230 232 235 238 241 244 245 246 245 245 246 248 250 252 253 254 257 260 264 266 268 270 271 273 275 277 279 282 285 287 290 291 292 294
312 311 311 312 311 310 308 306 303 300 297 294 291 288 285 281 276 270 265 261 258 255 252 249 245 241 237 234 231 230 229 229 229 229 229 230 233 236 239 242 244 245 245 244 244 246 247 250 251 253 254 255 257 260 264 267 269 270 272 274 275 277 280 282 285 286 287 288 291
313 312 312 312 311 310 308 305 301 298 295 292 289 285 281 276 271 267 263 260 258 256 252 248 245 241 237 234 231 230 229 229 229 229 230 231 233 236 239 241 243 244 244 243 243 244 247 249 251 252 253 254 256 258 261 264 267 269 270 272 274 276 278 281 282 284 286 289 291
312 312 312 312 311 309 306 302 298 295 291 288 285 281 277 273 268 264 262 259 257 255 252 249 245 241 237 233 231 229 229 229 229 229 230 231 233 236 238 241 242 243 243 241 242 243 246 248 250 252 253 254 255 257 260 262 265 267 269 271 273 276 279 281 282 284 287 290 293
312 312 312 311 310 307 303 299 295 291 287 284 280 277 274 271 268 265 262 260 258 256 253 249 245 241 237 233 231 229 229 229 229 229 230 231 233 235 238 240 242 242 242 240 241 243 245 248 250 251 253 253 254 256 258 261 264 266 269 272 275 278 280 281 283 285 289 292 292
312 311 311 310 308 305 301 297 292 288 284 282 279 277 275 273 272 270 267 263 260 257 254 249 245 240 236 233 231 230 229 229 229 229 229 230 233 235 238 240 241 242 241 240 240 242 245 247 249 251 252 253 254 256 258 260 263 266 269 272 276 279 281 282 284 287 290 291 288
309 309 308 307 305 302 298 294 290 287 284 282 281 281 280 278 276 274 269 264 260 256 252 248 243 238 234 231 229 228 228 228 228 228 229 230 232 235 237 240 241 241 240 239 240 242 244 247 249 250 251 252 253 256 258 261 264 266 269 272 275 278 280 282 285 288 290 289 282
307 306 305 303 301 298 296 294 290 287 285 284 285 285 284 282 280 276 270 263 258 254 250 246 241 237 233 229 227 226 226 227 227 228 229 230 232 235 237 239 240 240 239 238 239 242 244 247 248 249 250 251 254 256 259 261 264 267 269 272 275 278 281 283 286 289 289 284 274
305 303 302 301 299 298 296 294 291 289 288 288 288 286 284 282 279 275 269 263 258 254 250 245 240 236 232 229 227 226 226 226 227 227 229 230 233 235 237 239 239 239 238 237 239 241 244 246 248 249 250 251 254 257 260 262 264 267 269 272 276 278 281 284 288 290 288 279 267
304 303 302 301 299 298 296 294 292 290 290 290 289 286 283 281 279 275 271 265 260 256 252 247 241 237 233 230 227 226 226 226 227 227 229 231 233 235 237 238 239 238 237 236 238 240 243 246 247 248 250 252 255 258 260 262 265 267 270 273 276 279 283 286 290 290 285 274 260
306 304 303 301 299 298 296 294 293 292 291 290 289 287 285 282 280 276 272 267 262 258 253 249 244 239 234 230 228 226 226 226 227 228 229 231 233 234 236 237 238 237 236 235 236 239 243 245 247 248 250 252 255 258 260 263 265 268 271 274 277 280 284 287 290 288 280 266 254
307 306 303 301 299 298 296 295 295 293 291 289 288 287 284 282 278 274 270 266 262 258 254 249 245 240 235 231 228 226 226 226 227 228 229 231 232 234 235 236 237 236 235 234 235 239 242 245 247 249 250 252 255 258 260 262 265 268 271 274 277 280 283 287 288 285 273 257 249